Shungnak AP, Shungnak, AK, AK

10:59 PM AKST on December 12, 2019 (GMT -0900)
Shungnak AP, Shungnak, AK

Weather History for PAGH - November, 2019

Change the Weather History Date:

Thursday, November 21, 2019

  Actual Average (PAFM) Record (PAFM)
Temperature  
Mean Temperature 22 °F -  
Max Temperature 25 °F 11 °F 35 °F (2007)
Min Temperature 19 °F 3 °F -36 °F (2008)
Degree Days  
Heating Degree Days 43    
Moisture  
Dew Point 17 °F    
Average Humidity 88    
Maximum Humidity 93    
Minimum Humidity 81    
Precipitation  
Precipitation 0.00 in - - ()
Sea Level Pressure  
Sea Level Pressure 29.06 in    
Wind  
Wind Speed 17 mph (ESE)    
Max Wind Speed 23 mph    
Max Gust Speed 31 mph    
Visibility 7 miles    
Events Snow    
Averages and records for this station are not official NWS values.
T = Trace of Precipitation, MM = Missing Value Source: NWS Daily Summary

Daily Weather History Graph

Daily Weather History Graph

Search for Another Location

Airport or City:

Astronomy

Nov. 21, 2019 Rise Set
Actual Time 10:51 AM AKST 3:36 PM AKST
Civil Twilight 9:32 AM AKST 4:55 PM AKST
Nautical Twilight 8:21 AM AKST 6:06 PM AKST
Astronomical Twilight 7:17 AM AKST 7:10 PM AKST
Moon 1:33 AM AKST (11/21) 4:16 PM AKST (11/21)
Length of Visible Light 7h 22m
Length of Day
4h 44m
Waning Crescent, 28% of the Moon is Illuminated
Nov 21
Waning Crescent
Nov 26
New
Dec 3
First Quarter
Dec 11
Full
Dec 18
Last Quarter

Hourly Weather History & Observations

Time (AKST) Temp. Windchill Dew Point Humidity Pressure Visibility Wind Dir Wind Speed Gust Speed Precip Events Conditions
12:09 AM 19.4 °F 4.5 °F 15.8 °F 86% 29.10 in 2.0 mi East 17.3 mph 27.6 mph 0.00 in Snow Light Snow
12:21 AM 19.4 °F 4.5 °F 15.8 °F 86% 29.10 in 1.8 mi East 17.3 mph 23.0 mph 0.00 in Snow Light Snow
12:46 AM 19.4 °F 4.1 °F 15.8 °F 86% 29.10 in 3.0 mi East 18.4 mph 26.5 mph 0.00 in Snow Light Snow
1:08 AM 19.4 °F 3.2 °F 15.8 °F 86% 29.09 in 7.0 mi East 20.7 mph 25.3 mph 0.00 in Snow Light Snow
1:56 AM 19.0 °F 2.4 °F 16.0 °F 88% 29.10 in 7.0 mi East 21.9 mph 31.1 mph 0.00 in Snow Light Snow
2:56 AM 19.9 °F 5.2 °F 16.0 °F 85% 29.11 in 9.0 mi East 17.3 mph 24.2 mph 0.00 in Snow Light Snow
3:56 AM 19.9 °F 3.2 °F 16.0 °F 85% 29.11 in 7.0 mi ESE 23.0 mph 28.8 mph 0.00 in Snow Light Snow
4:35 AM 19.4 °F 4.1 °F 15.8 °F 86% 29.08 in 3.0 mi ESE 18.4 mph 23.0 mph 0.00 in Snow Light Snow
4:43 AM 19.4 °F 4.5 °F 17.6 °F 93% 29.08 in 1.8 mi ESE 17.3 mph - 0.00 in Snow Light Snow
4:53 AM 19.4 °F 5.0 °F 17.6 °F 93% 29.08 in 1.2 mi East 16.1 mph - 0.00 in Snow Light Snow
4:56 AM 19.0 °F 4.0 °F 17.1 °F 92% 29.11 in 1.2 mi ESE 17.3 mph - 0.00 in Snow Light Snow
5:30 AM 19.4 °F 4.5 °F 17.6 °F 93% 29.07 in 2.5 mi East 17.3 mph 24.2 mph 0.00 in Snow Light Snow
5:39 AM 19.4 °F 3.2 °F 17.6 °F 93% 29.07 in 1.8 mi East 20.7 mph 28.8 mph 0.00 in Snow Light Snow
5:56 AM 19.0 °F 4.5 °F 17.1 °F 92% 29.09 in 2.0 mi ESE 16.1 mph 25.3 mph 0.00 in Snow Light Snow
6:01 AM 19.4 °F 2.8 °F 17.6 °F 93% 29.07 in 3.0 mi East 21.9 mph 27.6 mph 0.00 in Snow Light Snow
6:15 AM 19.4 °F 5.0 °F 17.6 °F 93% 29.07 in 3.0 mi East 16.1 mph 26.5 mph 0.00 in Snow Light Snow
6:56 AM 19.9 °F 3.9 °F 17.1 °F 89% 29.08 in 9.0 mi ESE 20.7 mph 26.5 mph 0.00 in Snow Light Snow
7:42 AM 19.4 °F 6.0 °F 15.8 °F 86% 29.06 in 9.0 mi ESE 13.8 mph - 0.00 in Snow Light Snow
7:56 AM 19.9 °F 4.8 °F 16.0 °F 85% 29.08 in 10.0 mi ESE 18.4 mph 24.2 mph 0.00 in   Overcast
8:56 AM 19.9 °F 4.3 °F 16.0 °F 85% 29.08 in 10.0 mi ESE 19.6 mph 25.3 mph N/A   Overcast
10:21 AM 19.4 °F 3.6 °F 17.6 °F 93% 29.06 in 9.0 mi East 19.6 mph 25.3 mph 0.00 in Snow Light Snow
10:56 AM 21.0 °F 6.2 °F 17.1 °F 85% 29.08 in 10.0 mi East 18.4 mph 27.6 mph 0.00 in   Overcast
11:56 AM 21.0 °F 8.1 °F 17.1 °F 85% 29.09 in 10.0 mi ESE 13.8 mph - N/A   Overcast
12:56 PM 21.0 °F 7.6 °F 18.0 °F 88% 29.08 in 10.0 mi ESE 15.0 mph - N/A   Overcast
1:10 PM 21.2 °F 7.3 °F 17.6 °F 86% 29.05 in 10.0 mi ESE 16.1 mph - N/A   Overcast
1:56 PM 21.0 °F 7.6 °F 18.0 °F 88% 29.06 in 10.0 mi East 15.0 mph - N/A   Overcast
2:56 PM 21.0 °F 5.4 °F 18.0 °F 88% 29.06 in 10.0 mi ESE 20.7 mph 28.8 mph 0.00 in   Scattered Clouds
3:15 PM 21.2 °F 7.8 °F 17.6 °F 86% 29.03 in 10.0 mi ESE 15.0 mph 23.0 mph N/A   Mostly Cloudy
3:44 PM 21.2 °F 7.3 °F 17.6 °F 86% 29.03 in 10.0 mi ESE 16.1 mph 21.9 mph N/A   Overcast
3:56 PM 21.0 °F 6.6 °F 18.0 °F 88% 29.05 in 10.0 mi ESE 17.3 mph 23.0 mph N/A   Overcast
6:56 PM 23.0 °F 9.6 °F 19.0 °F 85% 29.00 in 10.0 mi East 16.1 mph - N/A   Mostly Cloudy
7:56 PM 24.1 °F 11.5 °F 19.9 °F 84% 28.99 in 9.0 mi ESE 15.0 mph 23.0 mph 0.00 in Snow Light Snow
8:56 PM 25.0 °F 13.6 °F 19.9 °F 81% 28.97 in 9.0 mi East 12.7 mph - 0.00 in Snow Light Snow
9:56 PM 24.1 °F 14.4 °F 21.0 °F 88% 28.95 in 10.0 mi East 9.2 mph - 0.00 in   Overcast
10:56 PM 21.9 °F 14.5 °F 19.9 °F 92% 28.93 in 10.0 mi NE 5.8 mph - N/A   Overcast
11:56 PM 21.9 °F 15.7 °F 19.9 °F 92% 28.93 in 10.0 mi ENE 4.6 mph - N/A   Overcast